Location: Pedholt
(56.0260°N, 10.2097°E)
Time: 06:16:51
(UTC+00:00)

S-56A Canister/Altair - All Passes

Search period start: 31 July 2021 00:00
Search period end: 10 August 2021 00:00
Orbit: 631 x 2501 km, 38.9° (Epoch: 30 July)

Date Brightness Start Highest point End Pass type
(mag) Time Alt. Az. Time Alt. Az. Time Alt. Az.
31 Jul - 13:42:08 10° SSW 13:52:37 26° SSE 14:03:43 10° E daylight
31 Jul - 15:43:48 10° SW 15:56:33 38° S 16:09:04 10° ESE daylight
31 Jul - 17:48:03 10° WSW 18:00:56 36° SSW 18:12:28 10° SE daylight
31 Jul - 19:54:20 10° W 20:04:25 23° SW 20:13:10 10° S visible
01 Aug - 13:09:45 10° S 13:19:31 24° SE 13:30:07 10° E daylight
01 Aug - 15:10:51 10° SW 15:23:16 37° SSE 15:35:55 10° ESE daylight
01 Aug - 17:14:44 10° WSW 17:27:42 38° S 17:39:42 10° SE daylight
01 Aug - 19:20:33 10° W 19:31:25 25° SW 19:40:58 10° SSE daylight
02 Aug - 12:37:31 10° S 12:46:30 22° SE 12:56:24 10° E daylight
02 Aug - 14:38:00 10° SW 14:50:00 36° SSE 15:02:41 10° ESE daylight
02 Aug - 16:41:29 10° WSW 16:54:25 38° S 17:06:49 10° SE daylight
02 Aug - 18:46:55 10° W 18:58:21 28° SSW 19:08:38 10° SSE daylight
02 Aug - 20:57:35 10° WSW 21:00:45 11° SW 21:03:47 10° SW visible
03 Aug - 12:05:29 10° S 12:13:32 19° SE 12:22:30 10° E daylight
03 Aug - 14:05:15 10° SW 14:16:46 34° SSE 14:29:21 10° ESE daylight
03 Aug - 16:08:21 10° WSW 16:21:06 39° S 16:33:51 10° ESE daylight
03 Aug - 18:13:23 10° W 18:25:14 30° SSW 18:36:09 10° SSE daylight
03 Aug - 20:22:09 10° WSW 20:27:57 13° SW 20:33:23 10° SSW visible
04 Aug - 11:33:42 10° SSE 11:40:38 17° SE 11:48:24 10° ESE daylight
04 Aug - 13:32:37 10° SSW 13:43:34 33° SSE 13:55:55 10° ESE daylight
04 Aug - 15:35:18 10° WSW 15:47:48 39° S 16:00:47 10° ESE daylight
04 Aug - 17:39:58 10° WSW 17:52:04 32° SSW 18:03:32 10° SSE daylight
04 Aug - 19:47:39 10° WSW 19:55:04 16° SW 20:02:01 10° SSW visible
05 Aug - 11:02:15 10° SSE 11:07:50 14° SE 11:13:58 10° ESE daylight
05 Aug - 13:00:07 10° SSW 13:10:26 30° SSE 13:22:24 10° ESE daylight
05 Aug - 15:02:21 10° WSW 15:14:30 39° S 15:27:37 10° ESE daylight
05 Aug - 17:06:39 10° WSW 17:18:51 33° SSW 17:30:48 10° SE daylight
05 Aug - 19:13:32 10° W 19:22:08 18° SW 19:30:14 10° S daylight
06 Aug - 10:31:31 10° SE 10:35:04 12° SE 10:38:53 10° ESE daylight
06 Aug - 12:27:43 10° SSW 12:37:22 28° SSE 12:48:47 10° E daylight
06 Aug - 14:29:30 10° SW 14:41:14 38° S 14:54:21 10° ESE daylight
06 Aug - 16:33:27 10° WSW 16:45:36 34° SSW 16:57:57 10° SE daylight
06 Aug - 18:39:41 10° W 18:49:08 20° SW 18:58:11 10° S daylight
07 Aug - 11:55:27 10° SSW 12:04:23 26° SSE 12:15:04 10° E daylight
07 Aug - 13:56:45 10° SW 14:08:00 37° S 14:21:00 10° ESE daylight
07 Aug - 16:00:20 10° WSW 16:12:21 36° SSW 16:25:00 10° SE daylight
07 Aug - 18:06:03 10° W 18:16:05 22° SW 18:25:54 10° S daylight
08 Aug - 11:23:19 10° S 11:31:27 23° SE 11:41:16 10° E daylight
08 Aug - 13:24:06 10° SW 13:34:48 36° SSE 13:47:35 10° ESE daylight
08 Aug - 15:27:20 10° WSW 15:39:05 36° SSW 15:51:56 10° SE daylight
08 Aug - 17:32:33 10° W 17:42:59 24° SW 17:53:28 10° SSE daylight
09 Aug - 10:51:22 10° S 10:58:36 21° SE 11:07:20 10° E daylight
09 Aug - 12:51:33 10° SW 13:01:40 34° SSE 13:14:04 10° ESE daylight
09 Aug - 14:54:25 10° WSW 15:05:50 37° S 15:18:46 10° SE daylight
09 Aug - 16:59:12 10° W 17:09:51 26° SSW 17:20:51 10° SSE daylight
09 Aug - 19:10:58 10° WSW 19:12:37 10° SW 19:14:15 10° SW daylight
